Location: Gorrie
(43.8742°N, 81.1087°W)
Time: 15:09:56
(UTC+00:00)

Cosmos 2369 - Pass Details

Date: 09 December 2025
Orbit: 839 x 854 km, 71.0° (Epoch: 19 January)

Event Time Altitude Azimuth Distance (km) Brightness Sun altitude
Exits shadow 10:52:00 38° 282° (WNW) 1,279 4.1 -20.0°
Maximum altitude 10:53:06 42° 253° (WSW) 1,195 4.1 -19.8°
Drops below altitude 10° 10:58:22 10° 184° (S) 2,457 6.2 -18.8°
Sets 11:00:54 0° 178° (S) 3,385 7.1 -18.4°
